COSMOS 1275 DEB

Satellite information

Favourite Embed

Satellite Type and Status

DEBRISIN ORBIT

Key statistics

Satellite COSMOS 1275 DEB at a glance.

Uptime

16269

Days in orbit

Revolutions

≈ 13.7

Per day

Orbit

LEO

Low Earth Orbit

Inclination

83.0

Latest

Satellite identification and parameters

Extended collection of information and parameters for COSMOS 1275 DEB.

Object identification

Identified? True

Debris? True

Object name: COSMOS 1275 DEB

International designator: 1981-053CR

Object number (NORAD): 12748

Object ID (CCSDS): 12748

Country: COMMONWEALTH OF INDEPENDENT STATES (CIS)

Current information (Y/N): Y

RCS size: SMALL

Orbital parameters

Period: 104.739 minutes

Inclination: 82.9866 deg

SMA: 7360.342 km

Apoapsis: 1015.289 km

Periapsis: 949.126 km

RAAN: 148.3339 deg

Eccentricy: 0.00449456

Argument of periapsis: 100.5747 deg

Mean anomaly: 16.5547 deg

Mean motion: 13.74851412 rev/day

Mean motion (dot): 0.00000282 rev/day2

B* drag term: 0.00027828551 1/REarth

Two-line elements (TLE)

Creation date: Dec. 18, 2025, 2:19 a.m.

Reference frame: TEME

Reference center: EARTH

Epoch: Dec. 17, 2025, 9:26 p.m. UTC

TLE line 0: 0 COSMOS 1275 DEB

TLE line 1: 1 12748U 81053CR 25351.89340569 .00000282 00000-0 27829-3 0 9992

TLE line 2: 2 12748 82.9866 148.3339 0044946 100.5747 16.5547 13.74851412221464

Live tracking on map

Real-time ground track for satellite COSMOS 1275 DEB.

In-orbit conjunctions

A list of the most updated potential collisions computed for object COSMOS 1275 DEB.

Target Orbit TCA Probability of collision Miss distance Type
SL-16 DEB LEO 2025-04-01 20:20:31 0.0001412571 448.0 (m) DEBRIS
COSMOS 970 DEB LEO 2025-03-01 19:22:09 0.0009349314 11.0 (m) DEBRIS
COSMOS 1725 LEO 2024-05-30 12:45:13 0.0001632871 104.0 (m) PAYLOAD

Associated space launch

Navigation satellite providing location information for the Tsiklon-B navigation system

COSMOS 1275 DEB was lifted into orbit during the mission ‘Kosmos-3M | Parus 27’, on board a Kosmos-3M space rocket.

The launch took place on June 4, 1981, 3:41 p.m. from 132/2.

For more information about the launch, click the button.

Launch to space Kosmos-3M | Parus 27
Kosmos-3M | Parus 27

Agency: N/A

Status: Launch Successful

Launch date: June 4, 1981, 3:41 p.m. UTC

Rocket: Kosmos-3M

Launch pad: 132/2

Location: Plesetsk Cosmodrome, Russian Federation

...

Latest news about this satellite

There are no fresh news available about this satellite. Check back as we update our databases every day.


Newsletter sign-up

Weekly statistics, charts and insights to help you stay on top of the space industry.